This demonstration page uses our WeatherBlox Daily Observations layout. Learn more.

Left ArrowRight Arrow

36.19886, -115.1175

Hourly Observations for August 10, 2017

Temp ( °F °C ) Dew Point ( °F °C ) Humidity (%) Winds ( mph kmh ) Pressure ( in mb ) Visibility ( mi km ) Precip ( " mm )
12:53 am 00:53 Clear 91 32.8 42 5.6 18 18 WSW 9 15 29.79 1009 10 16 N/A
1:53 am 01:53 Clear 87 30.6 44 6.7 22 22 N N/A 29.82 1010 10 16 N/A
2:53 am 02:53 Clear 85 29.4 44 6.7 24 24 NNW 5 7 29.82 1010 10 16 N/A
3:53 am 03:53 Clear 83 28.3 40 4.4 22 22 N N/A 29.83 1010 10 16 N/A
4:53 am 04:53 Clear 82 27.8 42 5.6 24 24 N N/A 29.85 1011 10 16 N/A
5:53 am 05:53 Clear 79 26.1 43 6.1 28 28 NNW 6 9 29.87 1012 10 16 N/A
6:53 am 06:53 Sunny 81 27.2 43 6.1 26 26 N 6 9 29.88 1012 10 16 N/A
7:53 am 07:53 Sunny 86 30 38 3.3 18 18 N 6 9 29.89 1012 10 16 N/A
8:53 am 08:53 Sunny 89 31.7 37 2.8 16 16 SSE 3 6 29.89 1012 10 16 N/A
9:53 am 09:53 Sunny 94 34.4 38 3.3 14 14 SSE 7 11 29.90 1013 10 16 N/A
10:53 am 10:53 Sunny 98 36.7 41 5 14 14 SE 12 19 29.89 1012 10 16 N/A
11:53 am 11:53 Sunny 99 37.2 42 5.6 14 14 SE 8 13 29.88 1012 10 16 N/A
12:53 pm 12:53 Sunny 102 38.9 43 6.1 13 13 SE 14 22 29.84 1011 10 16 N/A
1:53 pm 13:53 Sunny 104 40 42 5.6 12 12 S 14 22 29.83 1010 10 16 N/A
2:53 pm 14:53 Sunny 105 40.6 36 2.2 9 9 SW 9 15 29.80 1009 10 16 N/A
3:53 pm 15:53 Sunny 106 41.1 36 2.2 9 9 SSW 12 19 29.78 1009 10 16 N/A
4:53 pm 16:53 Sunny 106 41.1 35 1.7 9 9 WSW 13 20 29.76 1008 10 16 N/A
5:53 pm 17:53 Sunny 104 40 35 1.7 9 9 VRB 5 7 29.75 1008 10 16 N/A
6:46 pm 18:46 Sunny with Nearby Thunderstorms 104 40 33 0.6 8 8 SW 12 19 29.56 1001 10 16 N/A
6:53 pm 18:53 Sunny with Nearby Thunderstorms 103 39.4 35 1.7 9 9 SSW 15 24 29.76 1008 10 16 N/A
7:01 pm 19:01 Sunny 103 39.4 35 1.7 9 9 SSW 12 19 29.56 1001 10 16 N/A
7:53 pm 19:53 Clear 101 38.3 31 -0.6 8 8 WSW 15 24 29.77 1008 10 16 N/A
8:53 pm 20:53 Clear 99 37.2 32 undefined 9 9 WSW 13 20 29.79 1009 10 16 N/A
9:53 pm 21:53 Clear 97 36.1 32 undefined 10 10 W 8 13 29.79 1009 10 16 N/A
10:53 pm 22:53 Clear 96 35.6 33 0.6 11 11 W 8 13 29.80 1009 10 16 N/A
11:53 pm 23:53 Clear 92 33.3 35 1.7 13 13 SSE 8 13 29.83 1010 10 16 N/A

Powered by AerisWeather